Location: Dumpton Point
(51.3500°N, 1.4433°E)
Time: 12:29:52
(UTC+00:00)

Envisat - Pass Details

Date: 10 December 2021
Orbit: 764 x 766 km, 98.2° (Epoch: 23 January)

Event Time Altitude Azimuth Distance (km) Brightness Sun altitude
Rises 16:26:25 0° 183° (S) 3,221 6.7 -6.1°
Reaches altitude 10° 16:28:49 10° 190° (S) 2,300 6.1 -6.4°
Maximum altitude 16:33:39 44° 262° (W) 1,057 4.4 -7.1°
Drops below altitude 10° 16:38:31 10° 335° (NNW) 2,316 5.5 -7.8°
Sets 16:40:57 0° 342° (NNW) 3,247 6.2 -8.1°
